FW3031 Weather Reports


Display with metric or nautical units.
time (UTC)temp
F
wind
direction
speed
MPH
gust
MPH
rain 1hr
in
rain 24hr
in
rain mn
in
humidity
%
barometer
mb
20260510194606 96 0 0.0 6.0 0.00 0.00 0.00 30 1008.2
20260510194529 96 190 0.0 3.0 0.00 0.00 0.00 30 1008.4
20260510194027 96 190 0.0 7.0 0.00 0.00 0.00 30 1008.5
20260510193527 97 190 3.0 10.0 0.00 0.00 0.00 30 1008.6
20260510193102 96 190 5.0 10.0 0.00 0.00 0.00 31 1008.4
20260510193025 96 190 4.0 10.0 0.00 0.00 0.00 31 1008.7
20260510192527 96 190 1.0 9.0 0.00 0.00 0.00 31 1008.8
20260510192022 95 190 1.0 8.0 0.00 0.00 0.00 31 1008.9
20260510191601 96 190 4.0 8.0 0.00 0.00 0.00 30 1008.7
20260510191521 96 190 4.0 8.0 0.00 0.00 0.00 31 1008.9
20260510191020 96 190 1.0 6.0 0.00 0.00 0.00 31 1009.1
20260510190519 95 190 1.0 5.0 0.00 0.00 0.00 31 1009.2
20260510190022 95 190 0.0 5.0 0.00 0.00 0.00 32 1009.3
20260510185518 95 190 1.0 5.0 0.00 0.00 0.00 31 1009.4
20260510185018 95 190 0.0 5.0 0.00 0.00 0.00 32 1009.6
20260510184605 95 190 0.0 6.0 0.00 0.00 0.00 31 1009.2
20260510184526 95 190 0.0 6.0 0.00 0.00 0.00 32 1009.7
20260510184014 94 190 0.0 6.0 0.00 0.00 0.00 33 1009.8
20260510183514 94 190 0.0 6.0 0.00 0.00 0.00 33 1009.9
20260510183057 93 0 2.0 8.0 0.00 0.00 0.00 33 1009.6
20260510183012 93 190 1.0 8.0 0.00 0.00 0.00 34 1010.0
20260510182510 93 190 3.0 9.0 0.00 0.00 0.00 33 1010.2
20260510182013 93 190 1.0 9.0 0.00 0.00 0.00 34 1010.3
20260510181609 93 190 2.0 6.0 0.00 0.00 0.00 34 1010.0
20260510181509 93 190 2.0 6.0 0.00 0.00 0.00 34 1010.5
20260510181010 93 190 0.0 3.0 0.00 0.00 0.00 35 1010.5
20260510180508 92 190 0.0 8.0 0.00 0.00 0.00 36 1010.6
20260510180110 92 190 4.0 8.0 0.00 0.00 0.00 34 1010.4
20260510180007 92 190 3.0 8.0 0.00 0.00 0.00 35 1010.8
20260510175505 92 190 1.0 5.0 0.00 0.00 0.00 35 1010.9
20260510175005 92 190 1.0 7.0 0.00 0.00 0.00 36 1010.9
20260510174557 92 190 2.0 9.0 0.00 0.00 0.00 35 1010.6
20260510174506 92 190 2.0 7.0 0.00 0.00 0.00 36 1011.0
20260510174007 92 190 3.0 9.0 0.00 0.00 0.00 35 1011.0
20260510173504 92 190 0.0 6.0 0.00 0.00 0.00 36 1011.0
20260510173104 91 0 3.0 6.0 0.00 0.00 0.00 35 1010.6
20260510173004 91 190 3.0 6.0 0.00 0.00 0.00 36 1011.1
20260510172501 90 190 1.0 5.0 0.00 0.00 0.00 37 1011.2
20260510172101 90 190 1.0 5.0 0.00 0.00 0.00 38 1011.4
20260510171606 90 190 1.0 10.0 0.00 0.00 0.00 37 1011.0
20260510171603 90 190 1.0 10.0 0.00 0.00 0.00 38 1011.5
20260510171100 90 190 5.0 10.0 0.00 0.00 0.00 37 1011.7
20260510170600 90 190 1.0 6.0 0.00 0.00 0.00 37 1011.7
20260510170105 90 190 0.0 6.0 0.00 0.00 0.00 38 1011.7
20260510170101 90 190 1.0 6.0 0.00 0.00 0.00 37 1011.2
20260510165558 89 190 1.0 7.0 0.00 0.00 0.00 39 1011.7
20260510165057 89 190 2.0 8.0 0.00 0.00 0.00 39 1011.9
20260510164602 89 190 1.0 6.0 0.00 0.00 0.00 38 1011.4
20260510164556 89 190 2.0 6.0 0.00 0.00 0.00 39 1011.9
20260510164055 88 190 3.0 6.0 0.00 0.00 0.00 40 1012.0
20260510163554 88 190 0.0 5.0 0.00 0.00 0.00 40 1012.0
20260510163057 88 190 1.0 5.0 0.00 0.00 0.00 40 1011.6
20260510163054 88 190 2.0 5.0 0.00 0.00 0.00 40 1012.1
20260510162551 87 190 1.0 6.0 0.00 0.00 0.00 40 1012.2
20260510162051 87 190 2.0 6.0 0.00 0.00 0.00 41 1012.3
20260510161606 87 190 2.0 5.0 0.00 0.00 0.00 41 1011.7
20260510161553 87 190 2.0 5.0 0.00 0.00 0.00 41 1012.2
20260510161051 87 190 0.0 5.0 0.00 0.00 0.00 42 1012.3
20260510160549 86 190 0.0 4.0 0.00 0.00 0.00 42 1012.4
20260510160115 85 190 2.0 5.0 0.00 0.00 0.00 43 1012.5
20260510155546 85 190 0.0 5.0 0.00 0.00 0.00 43 1012.5
20260510155046 85 190 1.0 4.0 0.00 0.00 0.00 43 1012.5
20260510154605 84 0 2.0 5.0 0.00 0.00 0.00 44 1012.0
20260510154545 84 190 0.0 5.0 0.00 0.00 0.00 44 1012.5
20260510154044 84 190 1.0 4.0 0.00 0.00 0.00 47 1012.5
20260510153543 84 190 2.0 4.0 0.00 0.00 0.00 47 1012.6
20260510153104 84 190 0.0 4.0 0.00 0.00 0.00 47 1012.1
20260510153044 84 190 1.0 4.0 0.00 0.00 0.00 47 1012.6
20260510152542 84 190 0.0 4.0 0.00 0.00 0.00 48 1012.7
20260510152041 83 190 1.0 4.0 0.00 0.00 0.00 49 1012.7
20260510151600 83 0 0.0 3.0 0.00 0.00 0.00 49 1012.1
20260510151541 83 190 0.0 3.0 0.00 0.00 0.00 50 1012.7
20260510151041 83 190 0.0 3.0 0.00 0.00 0.00 50 1012.8
20260510150539 83 190 0.0 3.0 0.00 0.00 0.00 51 1012.9
20260510150123 82 0 0.0 4.0 0.00 0.00 0.00 52 1012.2
20260510150037 82 190 0.0 4.0 0.00 0.00 0.00 52 1012.9
20260510145536 81 190 0.0 1.0 0.00 0.00 0.00 53 1013.0
20260510145035 81 190 0.0 2.0 0.00 0.00 0.00 53 1013.1
20260510144605 81 0 0.0 3.0 0.00 0.00 0.00 53 1012.4
20260510144535 80 190 0.0 3.0 0.00 0.00 0.00 53 1013.1
20260510144036 80 190 1.0 3.0 0.00 0.00 0.00 54 1013.1
20260510143535 80 190 0.0 2.0 0.00 0.00 0.00 54 1013.2
20260510143102 80 0 0.0 2.0 0.00 0.00 0.00 54 1012.5
20260510143039 80 190 0.0 2.0 0.00 0.00 0.00 55 1013.1
20260510142533 79 190 0.0 2.0 0.00 0.00 0.00 56 1013.2
20260510142036 79 190 0.0 2.0 0.00 0.00 0.00 56 1013.1
20260510141602 79 0 0.0 3.0 0.00 0.00 0.00 56 1012.4
20260510141533 79 190 0.0 0.0 0.00 0.00 0.00 57 1013.1
20260510141031 78 190 0.0 3.0 0.00 0.00 0.00 58 1013.1
20260510140531 78 190 1.0 4.0 0.00 0.00 0.00 58 1013.0
20260510140031 78 190 0.0 4.0 0.00 0.00 0.00 59 1013.0
20260510135531 77 190 0.0 4.0 0.00 0.00 0.00 59 1013.0
20260510135031 77 190 1.0 4.0 0.00 0.00 0.00 60 1012.9
20260510134604 76 0 2.0 4.0 0.00 0.00 0.00 60 1012.0
20260510134531 76 190 2.0 4.0 0.00 0.00 0.00 61 1012.8
20260510134029 76 190 0.0 4.0 0.00 0.00 0.00 62 1012.8
20260510133528 75 190 1.0 4.0 0.00 0.00 0.00 63 1012.7
20260510133110 74 190 0.0 4.0 0.00 0.00 0.00 63 1011.9
20260510133027 74 190 0.0 4.0 0.00 0.00 0.00 64 1012.5
20260510132526 74 190 1.0 4.0 0.00 0.00 0.00 64 1012.4
20260510132026 73 190 1.0 3.0 0.00 0.00 0.00 65 1012.4
20260510131608 73 190 0.0 3.0 0.00 0.00 0.00 65 1011.7
20260510131525 73 190 0.0 3.0 0.00 0.00 0.00 66 1012.4
20260510131025 72 190 0.0 3.0 0.00 0.00 0.00 66 1012.4
20260510130524 72 190 0.0 3.0 0.00 0.00 0.00 66 1012.4
20260510130108 72 0 1.0 4.0 0.00 0.00 0.00 65 1011.8
20260510130024 72 190 0.0 4.0 0.00 0.00 0.00 66 1012.4
20260510125524 72 190 1.0 4.0 0.00 0.00 0.00 66 1012.4
20260510125022 72 190 1.0 4.0 0.00 0.00 0.00 66 1012.3
20260510124639 73 190 0.0 3.0 0.00 0.00 0.00 65 1011.5
20260510124522 72 190 0.0 3.0 0.00 0.00 0.00 66 1012.1
20260510124022 72 190 0.0 3.0 0.00 0.00 0.00 66 1012.1
20260510123522 72 190 0.0 2.0 0.00 0.00 0.00 66 1012.0
20260510123101 72 0 0.0 3.0 0.00 0.00 0.00 65 1011.1
20260510123022 72 190 0.0 3.0 0.00 0.00 0.00 66 1011.8
20260510122521 72 190 1.0 3.0 0.00 0.00 0.00 66 1011.7
20260510122019 73 190 0.0 2.0 0.00 0.00 0.00 65 1011.5
20260510121559 73 0 0.0 0.0 0.00 0.00 0.00 64 1010.9
20260510121518 73 190 0.0 0.0 0.00 0.00 0.00 65 1011.5
20260510121021 73 190 0.0 0.0 0.00 0.00 0.00 65 1011.4
20260510120522 73 190 0.0 0.0 0.00 0.00 0.00 65 1011.4
20260510120104 73 0 0.0 3.0 0.00 0.00 0.00 64 1010.7
20260510120020 73 190 0.0 2.0 0.00 0.00 0.00 65 1011.3
20260510115520 73 190 0.0 3.0 0.00 0.00 0.00 64 1011.3
20260510115017 73 190 1.0 3.0 0.00 0.00 0.00 64 1011.3
20260510114601 73 0 0.0 3.0 0.00 0.00 0.00 63 1010.7
20260510114517 73 190 0.0 3.0 0.00 0.00 0.00 64 1011.2
20260510114016 73 190 0.0 3.0 0.00 0.00 0.00 63 1011.1
20260510113514 74 190 0.0 1.0 0.00 0.00 0.00 63 1011.1
20260510113110 74 0 0.0 1.0 0.00 0.00 0.00 62 1010.6
20260510113014 74 190 0.0 1.0 0.00 0.00 0.00 63 1011.1
20260510112517 75 190 0.0 0.0 0.00 0.00 0.00 63 1011.1
20260510112012 75 190 0.0 0.0 0.00 0.00 0.00 63 1011.2
20260510111607 75 0 0.0 0.0 0.00 0.00 0.00 63 1010.7
20260510111511 75 190 0.0 0.0 0.00 0.00 0.00 63 1011.2
20260510111012 75 190 0.0 0.0 0.00 0.00 0.00 63 1011.1
20260510110511 75 190 0.0 0.0 0.00 0.00 0.00 63 1011.1
20260510110109 75 0 0.0 0.0 0.00 0.00 0.00 62 1010.4
20260510110029 75 190 0.0 0.0 0.00 0.00 0.00 62 1011.1
20260510105511 75 190 0.0 0.0 0.00 0.00 0.00 62 1011.1
20260510105013 75 190 0.0 2.0 0.00 0.00 0.00 62 1011.0
20260510104608 75 190 0.0 0.0 0.00 0.00 0.00 62 1010.3
20260510104509 75 190 0.0 0.0 0.00 0.00 0.00 62 1010.9
20260510104009 75 190 0.0 0.0 0.00 0.00 0.00 62 1010.8
20260510103509 75 190 0.0 0.0 0.00 0.00 0.00 62 1010.7
20260510103110 75 0 0.0 1.0 0.00 0.00 0.00 62 1010.0
20260510103012 75 190 0.0 1.0 0.00 0.00 0.00 62 1010.6
20260510102512 75 190 0.0 1.0 0.00 0.00 0.00 62 1010.6
20260510102007 75 190 0.0 0.0 0.00 0.00 0.00 61 1010.5
20260510101605 76 0 0.0 0.0 0.00 0.00 0.00 61 1009.9
20260510101505 75 190 0.0 0.0 0.00 0.00 0.00 61 1010.5
20260510101005 76 190 0.0 0.0 0.00 0.00 0.00 61 1010.4
20260510100505 76 190 0.0 0.0 0.00 0.00 0.00 61 1010.4
20260510100107 76 0 0.0 0.0 0.00 0.00 0.00 61 1009.9
20260510100005 76 190 0.0 0.0 0.00 0.00 0.00 61 1010.5
20260510095505 76 190 0.0 0.0 0.00 0.00 0.00 61 1010.5
20260510095003 76 190 0.0 0.0 0.00 0.00 0.00 61 1010.6
20260510094613 76 0 0.0 0.0 0.00 0.00 0.00 61 1010.0
20260510094504 76 190 0.0 0.0 0.00 0.00 0.00 61 1010.6
20260510094002 76 190 0.0 1.0 0.00 0.00 0.00 61 1010.5
20260510093502 76 190 0.0 1.0 0.00 0.00 0.00 61 1010.6
20260510093121 76 0 0.0 0.0 0.00 0.00 0.00 60 1010.1
20260510093002 76 190 0.0 0.0 0.00 0.00 0.00 60 1010.6
20260510092600 76 190 0.0 0.0 0.00 0.00 0.00 60 1010.6
20260510092059 77 190 0.0 0.0 0.00 0.00 0.00 59 1010.6
20260510091558 77 190 0.0 0.0 0.00 0.00 0.00 59 1010.6
20260510091057 77 190 0.0 0.0 0.00 0.00 0.00 59 1010.7
20260510090557 77 190 0.0 0.0 0.00 0.00 0.00 58 1010.6
20260510090115 77 190 0.0 0.0 0.00 0.00 0.00 57 1010.6
20260510090059 77 0 0.0 0.0 0.00 0.00 0.00 57 1010.1
20260510085557 77 190 0.0 0.0 0.00 0.00 0.00 57 1010.6
20260510085055 77 190 0.0 0.0 0.00 0.00 0.00 57 1010.6
20260510084557 78 0 0.0 0.0 0.00 0.00 0.00 57 1010.2
20260510084554 78 190 0.0 0.0 0.00 0.00 0.00 57 1010.6
20260510084054 78 190 0.0 0.0 0.00 0.00 0.00 57 1010.7
20260510083556 78 190 0.0 0.0 0.00 0.00 0.00 57 1010.7
20260510083107 78 0 0.0 0.0 0.00 0.00 0.00 57 1010.3
20260510082551 78 190 0.0 0.0 0.00 0.00 0.00 57 1010.9
20260510082051 78 190 0.0 0.0 0.00 0.00 0.00 57 1010.9
20260510081607 78 190 0.0 0.0 0.00 0.00 0.00 56 1010.9
20260510081600 78 0 0.0 0.0 0.00 0.00 0.00 56 1010.5
20260510081051 78 190 0.0 0.0 0.00 0.00 0.00 56 1011.0
20260510080549 78 190 0.0 0.0 0.00 0.00 0.00 56 1011.0
20260510080059 78 0 0.0 0.0 0.00 0.00 0.00 55 1010.6
20260510080053 78 190 0.0 0.0 0.00 0.00 0.00 56 1011.1
20260510075547 78 190 0.0 0.0 0.00 0.00 0.00 55 1011.0
20260510075047 78 190 0.0 2.0 0.00 0.00 0.00 54 1011.1
20260510074600 79 0 0.0 6.0 0.00 0.00 0.00 53 1010.7
20260510074546 79 190 0.0 5.0 0.00 0.00 0.00 54 1011.2
20260510074047 79 190 1.0 6.0 0.00 0.00 0.00 54 1011.2
20260510073544 79 190 2.0 6.0 0.00 0.00 0.00 54 1011.3
20260510073100 79 190 0.0 5.0 0.00 0.00 0.00 53 1010.9
20260510073044 79 190 0.0 5.0 0.00 0.00 0.00 54 1011.3
20260510072543 79 190 1.0 5.0 0.00 0.00 0.00 54 1011.3
20260510072043 79 190 0.0 4.0 0.00 0.00 0.00 53 1011.3
20260510071600 80 190 0.0 0.0 0.00 0.00 0.00 52 1011.0
20260510071542 80 190 0.0 0.0 0.00 0.00 0.00 53 1011.4
20260510071040 80 190 0.0 0.0 0.00 0.00 0.00 52 1011.5
20260510070540 80 190 0.0 0.0 0.00 0.00 0.00 52 1011.6
20260510070058 80 0 0.0 2.0 0.00 0.00 0.00 51 1011.2
20260510070040 80 190 0.0 2.0 0.00 0.00 0.00 52 1011.7
20260510065640 80 190 0.0 2.0 0.00 0.00 0.00 53 1011.7
20260510065038 80 190 0.0 1.0 0.00 0.00 0.00 53 1011.7
20260510064605 80 0 0.0 0.0 0.00 0.00 0.00 52 1011.3
20260510064543 80 190 0.0 0.0 0.00 0.00 0.00 53 1011.8
20260510064037 80 190 0.0 2.0 0.00 0.00 0.00 53 1011.8
20260510063537 80 190 0.0 5.0 0.00 0.00 0.00 53 1011.8
20260510063057 80 190 2.0 5.0 0.00 0.00 0.00 52 1011.4
20260510063038 80 190 2.0 5.0 0.00 0.00 0.00 52 1011.8
20260510062536 80 190 0.0 4.0 0.00 0.00 0.00 52 1011.8
20260510062035 80 190 0.0 5.0 0.00 0.00 0.00 53 1011.9
20260510061600 80 190 2.0 5.0 0.00 0.00 0.00 53 1011.5
20260510061534 80 190 1.0 5.0 0.00 0.00 0.00 53 1012.0
20260510061034 80 190 1.0 5.0 0.00 0.00 0.00 53 1012.0
20260510060534 80 190 2.0 5.0 0.00 0.00 0.00 53 1012.1
20260510060059 81 190 0.0 2.0 0.00 0.00 0.00 52 1011.6
20260510060032 80 190 0.0 4.0 0.00 0.00 0.00 53 1012.1
20260510055531 81 190 0.0 3.0 0.00 0.00 0.00 52 1012.1
20260510055031 81 190 0.0 4.0 0.00 0.00 0.00 51 1012.2
20260510054558 81 190 0.0 2.0 0.00 0.00 0.00 50 1011.7
20260510054532 81 190 0.0 4.0 0.00 0.00 0.00 51 1012.2
20260510054031 81 190 0.0 3.0 0.00 0.00 0.00 51 1012.1
20260510053532 81 190 0.0 3.0 0.00 0.00 0.00 51 1012.1
20260510053059 81 0 0.0 6.0 0.00 0.00 0.00 50 1011.7
20260510053031 81 190 0.0 6.0 0.00 0.00 0.00 51 1012.2
20260510052530 81 190 1.0 5.0 0.00 0.00 0.00 51 1012.2
20260510052030 81 190 0.0 5.0 0.00 0.00 0.00 51 1012.1
20260510051605 81 190 1.0 7.0 0.00 0.00 0.00 50 1011.7
20260510051530 81 190 1.0 5.0 0.00 0.00 0.00 51 1012.1
20260510051029 81 190 1.0 7.0 0.00 0.00 0.00 51 1012.0
20260510050528 81 190 1.0 6.0 0.00 0.00 0.00 51 1011.9
20260510050057 82 190 1.0 7.0 0.00 0.00 0.00 50 1011.4
20260510050033 82 190 2.0 7.0 0.00 0.00 0.00 50 1011.8
20260510045530 82 190 2.0 7.0 0.00 0.00 0.00 50 1011.8
20260510045028 82 190 1.0 8.0 0.00 0.00 0.00 49 1011.7
20260510044612 82 190 2.0 10.0 0.00 0.00 0.00 48 1011.3
20260510044534 82 190 2.0 10.0 0.00 0.00 0.00 49 1011.8
20260510044026 83 190 0.0 10.0 0.00 0.00 0.00 48 1011.6
20260510043526 83 190 1.0 10.0 0.00 0.00 0.00 48 1011.5
20260510043058 83 190 2.0 5.0 0.00 0.00 0.00 47 1011.1
20260510043025 83 190 1.0 5.0 0.00 0.00 0.00 47 1011.4
20260510042523 84 190 1.0 11.0 0.00 0.00 0.00 47 1011.3
20260510042023 84 190 2.0 11.0 0.00 0.00 0.00 46 1011.2
20260510041559 85 190 3.0 10.0 0.00 0.00 0.00 46 1010.9
20260510041522 85 190 3.0 10.0 0.00 0.00 0.00 46 1011.1
20260510041021 85 190 3.0 9.0 0.00 0.00 0.00 46 1010.9
20260510040520 85 190 1.0 7.0 0.00 0.00 0.00 46 1010.6
20260510040100 85 0 1.0 5.0 0.00 0.00 0.00 45 1010.4
20260510040020 85 190 0.0 5.0 0.00 0.00 0.00 46 1010.5
20260510035519 85 190 0.0 3.0 0.00 0.00 0.00 45 1010.5
20260510035020 85 190 0.0 3.0 0.00 0.00 0.00 45 1010.4
20260510034557 85 0 0.0 6.0 0.00 0.00 0.00 44 1010.1
20260510034520 85 190 0.0 6.0 0.00 0.00 0.00 45 1010.3
20260510034021 85 190 1.0 6.0 0.00 0.00 0.00 45 1010.1
20260510033519 85 190 0.0 6.0 0.00 0.00 0.00 44 1010.0
20260510033110 86 190 0.0 5.0 0.00 0.00 0.00 44 1009.9
20260510033019 86 190 0.0 5.0 0.00 0.00 0.00 45 1009.9
20260510032518 86 190 0.0 5.0 0.00 0.00 0.00 45 1009.7
20260510032018 86 190 1.0 4.0 0.00 0.00 0.00 45 1009.6
20260510031557 86 0 1.0 3.0 0.00 0.00 0.00 44 1009.5
20260510031523 86 190 0.0 3.0 0.00 0.00 0.00 45 1009.4
20260510031018 86 190 0.0 0.0 0.00 0.00 0.00 45 1009.4
20260510030521 86 190 0.0 3.0 0.00 0.00 0.00 44 1009.2
20260510030106 87 0 0.0 5.0 0.00 0.00 0.00 44 1008.9
20260510030031 87 190 0.0 3.0 0.00 0.00 0.00 44 1009.1
20260510025517 87 190 1.0 5.0 0.00 0.00 0.00 44 1008.9
20260510025019 87 190 1.0 5.0 0.00 0.00 0.00 43 1008.8
20260510024558 87 0 0.0 2.0 0.00 0.00 0.00 43 1008.7
20260510024519 87 190 0.0 2.0 0.00 0.00 0.00 43 1008.8
20260510024017 87 190 0.0 4.0 0.00 0.00 0.00 43 1008.8
20260510023519 87 190 0.0 6.0 0.00 0.00 0.00 43 1008.7
20260510023059 87 0 2.0 6.0 0.00 0.00 0.00 42 1008.3
20260510023017 87 190 2.0 6.0 0.00 0.00 0.00 43 1008.5
20260510022516 87 190 0.0 7.0 0.00 0.00 0.00 42 1008.4
20260510022016 88 190 0.0 7.0 0.00 0.00 0.00 42 1008.3
20260510021608 88 0 1.0 4.0 0.00 0.00 0.00 41 1008.3
20260510021516 88 190 0.0 4.0 0.00 0.00 0.00 41 1008.3
20260510021017 88 190 0.0 5.0 0.00 0.00 0.00 40 1008.2
20260510020515 88 190 1.0 5.0 0.00 0.00 0.00 40 1008.1
20260510020100 88 0 0.0 9.0 0.00 0.00 0.00 39 1007.9
20260510020016 88 190 1.0 9.0 0.00 0.00 0.00 40 1007.9
20260510015517 88 190 1.0 9.0 0.00 0.00 0.00 40 1007.9
20260510015015 88 190 2.0 9.0 0.00 0.00 0.00 39 1007.7
20260510014601 89 190 3.0 8.0 0.00 0.00 0.00 39 1007.5
20260510014515 89 190 2.0 8.0 0.00 0.00 0.00 39 1007.6
20260510014015 89 190 2.0 7.0 0.00 0.00 0.00 39 1007.4
20260510013517 90 190 1.0 8.0 0.00 0.00 0.00 38 1007.2
20260510013059 90 190 3.0 10.0 0.00 0.00 0.00 36 1007.1
20260510013015 90 190 2.0 10.0 0.00 0.00 0.00 37 1007.1
20260510012513 91 190 5.0 10.0 0.00 0.00 0.00 35 1006.8
20260510012013 91 190 1.0 9.0 0.00 0.00 0.00 34 1006.5
20260510011559 91 190 4.0 11.0 0.00 0.00 0.00 33 1006.5
20260510011514 91 190 2.0 10.0 0.00 0.00 0.00 34 1006.4
20260510011017 91 190 4.0 12.0 0.00 0.00 0.00 34 1006.2
20260510010513 92 190 3.0 12.0 0.00 0.00 0.00 34 1006.1
20260510010100 92 190 6.0 17.0 0.00 0.00 0.00 33 1006.0
20260510010015 92 190 5.0 15.0 0.00 0.00 0.00 33 1006.0
20260510005512 92 190 5.0 17.0 0.00 0.00 0.00 33 1005.8
20260510005011 92 190 7.0 13.0 0.00 0.00 0.00 33 1005.7
20260510004600 93 190 5.0 14.0 0.00 0.00 0.00 32 1005.6
20260510004511 93 190 5.0 10.0 0.00 0.00 0.00 32 1005.5
20260510004015 93 190 4.0 14.0 0.00 0.00 0.00 32 1005.2
20260510003512 94 190 6.0 14.0 0.00 0.00 0.00 32 1005.2
20260510003100 94 190 4.0 11.0 0.00 0.00 0.00 31 1005.2
20260510003021 94 190 3.0 11.0 0.00 0.00 0.00 31 1005.0
20260510002511 94 190 3.0 11.0 0.00 0.00 0.00 31 1004.9
20260510002011 94 190 4.0 11.0 0.00 0.00 0.00 31 1004.9
20260510001556 94 190 4.0 11.0 0.00 0.00 0.00 30 1005.0
20260510001511 94 190 4.0 11.0 0.00 0.00 0.00 31 1004.9
20260510001011 94 190 4.0 11.0 0.00 0.00 0.00 31 1004.8
20260510000511 95 190 4.0 11.0 0.00 0.00 0.00 30 1004.7
20260510000103 95 190 4.0 9.0 0.00 0.00 0.00 30 1004.7
20260510000010 95 190 3.0 9.0 0.00 0.00 0.00 30 1004.7
20260509235512 95 190 4.0 10.0 0.00 0.00 0.00 30 1004.7
20260509235010 95 190 4.0 14.0 0.00 0.00 0.00 30 1004.6
20260509234559 95 190 5.0 14.0 0.00 0.00 0.00 29 1004.5
20260509234514 95 190 5.0 14.0 0.00 0.00 0.00 30 1004.6
20260509234010 96 190 4.0 9.0 0.00 0.00 0.00 29 1004.5
20260509233509 96 190 2.0 8.0 0.00 0.00 0.00 29 1004.4
20260509233058 96 190 3.0 6.0 0.00 0.00 0.00 28 1004.3
20260509233020 96 190 3.0 6.0 0.00 0.00 0.00 29 1004.3
20260509232515 96 190 2.0 6.0 0.00 0.00 0.00 30 1004.3
20260509232009 96 190 0.0 10.0 0.00 0.00 0.00 29 1004.1
20260509231601 96 190 2.0 10.0 0.00 0.00 0.00 29 1004.1
20260509231509 96 190 0.0 10.0 0.00 0.00 0.00 29 1004.1
20260509231008 96 190 4.0 10.0 0.00 0.00 0.00 29 1004.0
20260509230508 96 190 4.0 9.0 0.00 0.00 0.00 29 1003.9
20260509230008 96 190 3.0 12.0 0.00 0.00 0.00 29 1003.9
20260509225508 96 190 6.0 12.0 0.00 0.00 0.00 29 1003.9
20260509225009 96 190 3.0 9.0 0.00 0.00 0.00 29 1003.9
20260509224601 96 190 3.0 12.0 0.00 0.00 0.00 28 1003.8
20260509224507 96 190 4.0 12.0 0.00 0.00 0.00 29 1003.9
20260509224008 96 190 4.0 12.0 0.00 0.00 0.00 29 1003.9
20260509223506 96 190 4.0 8.0 0.00 0.00 0.00 29 1003.9
20260509223058 96 190 1.0 7.0 0.00 0.00 0.00 29 1003.9
20260509223005 96 190 2.0 6.0 0.00 0.00 0.00 29 1004.0
20260509222505 96 190 2.0 7.0 0.00 0.00 0.00 29 1004.0
20260509222103 96 190 3.0 8.0 0.00 0.00 0.00 29 1004.0
20260509221603 96 190 4.0 11.0 0.00 0.00 0.00 28 1004.1
20260509221504 96 190 3.0 10.0 0.00 0.00 0.00 29 1004.1
20260509221006 96 190 3.0 11.0 0.00 0.00 0.00 29 1004.1
20260509220502 96 190 5.0 11.0 0.00 0.00 0.00 29 1004.1
20260509220110 96 190 3.0 12.0 0.00 0.00 0.00 28 1004.4
20260509220002 96 190 2.0 11.0 0.00 0.00 0.00 28 1004.2
20260509215501 96 190 4.0 12.0 0.00 0.00 0.00 29 1004.3
20260509215100 97 190 6.0 12.0 0.00 0.00 0.00 28 1004.4
20260509214604 97 190 0.0 9.0 0.00 0.00 0.00 29 1004.7
20260509214602 96 190 0.0 9.0 0.00 0.00 0.00 30 1004.5
20260509214057 96 190 3.0 9.0 0.00 0.00 0.00 29 1004.6
20260509213558 96 190 3.0 9.0 0.00 0.00 0.00 30 1004.7
20260509213138 96 190 4.0 12.0 0.00 0.00 0.00 29 1004.9
20260509213056 96 190 3.0 12.0 0.00 0.00 0.00 29 1004.8
20260509212554 96 190 4.0 12.0 0.00 0.00 0.00 29 1004.9
20260509212054 96 190 6.0 13.0 0.00 0.00 0.00 30 1005.0
20260509211556 97 190 5.0 11.0 0.00 0.00 0.00 29 1005.2
20260509211055 96 190 2.0 11.0 0.00 0.00 0.00 30 1005.0
20260509210550 97 190 2.0 10.0 0.00 0.00 0.00 30 1005.1
20260509210106 97 190 5.0 12.0 0.00 0.00 0.00 29 1005.3
20260509210048 97 190 2.0 12.0 0.00 0.00 0.00 29 1005.1
20260509205546 96 190 4.0 12.0 0.00 0.00 0.00 29 1005.2
20260509205049 96 190 2.0 12.0 0.00 0.00 0.00 29 1005.3
20260509204559 96 190 4.0 11.0 0.00 0.00 0.00 29 1005.6
20260509204545 96 190 4.0 11.0 0.00 0.00 0.00 30 1005.5
20260509204044 96 190 3.0 11.0 0.00 0.00 0.00 29 1005.6
20260509203544 96 190 3.0 13.0 0.00 0.00 0.00 29 1005.7
20260509203103 95 190 6.0 13.0 0.00 0.00 0.00 30 1005.8
20260509203100 96 190 7.0 13.0 0.00 0.00 0.00 29 1005.8
20260509202545 96 190 5.0 10.0 0.00 0.00 0.00 29 1005.9
20260509202041 96 190 3.0 12.0 0.00 0.00 0.00 29 1006.0
20260509201559 96 190 5.0 12.0 0.00 0.00 0.00 29 1006.3
20260509201539 96 190 5.0 12.0 0.00 0.00 0.00 29 1006.1
20260509201037 96 190 5.0 10.0 0.00 0.00 0.00 29 1006.3
20260509200537 96 190 6.0 12.0 0.00 0.00 0.00 30 1006.5
20260509200104 95 190 5.0 12.0 0.00 0.00 0.00 30 1006.6
20260509200036 95 190 4.0 12.0 0.00 0.00 0.00 30 1006.6
20260509195545 96 190 5.0 11.0 0.00 0.00 0.00 30 1006.8
20260509195034 95 190 3.0 14.0 0.00 0.00 0.00 30 1006.9